GW3876 Weather Reports


time (UTC)temp
F
wind
direction
speed
knots
gust
knots
rain 1hr
in
rain 24hr
in
rain mn
in
humidity
%
barometer
mb
20260502191504 51 146 1.7 6.1 0.00 0.03 0.03 84 1011.6
20260502184504 51 152 1.7 4.3 0.00 0.03 0.03 84 1011.8
20260502183008 51 102 2.6 6.1 0.00 0.03 0.03 84 1011.9
20260502181505 51 131 2.6 5.2 0.00 0.03 0.03 84 1011.9
20260502163026 50 129 0.0 2.6 0.00 0.03 0.03 87 1012.3
20260502161520 50 105 0.0 1.7 0.01 0.03 0.03 88 1012.2
20260502151507 50 206 2.6 6.1 0.01 0.02 0.02 86 1012.9
20260502121504 50 297 0.0 1.7 0.00 0.00 0.00 82 1013.5
20260502114516 49 13 0.0 0.9 0.00 0.00 0.00 85 1013.0
20260502113008 48 13 0.0 0.9 0.00 0.00 0.00 86 1012.9
20260502111507 47 12 0.0 0.0 0.00 0.00 0.00 87 1012.8
20260502110006 46 12 0.0 0.9 0.00 0.00 0.00 87 1012.6
20260502104513 46 12 0.0 0.0 0.00 0.00 0.00 87 1012.5
20260502103004 45 12 0.0 0.9 0.00 0.00 0.00 86 1012.5
20260502091511 47 166 0.0 0.9 0.00 0.00 0.00 82 1012.3
20260502071512 47 129 0.0 0.9 0.00 0.00 0.00 79 1012.3
20260502070015 47 223 0.0 0.9 0.00 0.00 0.00 77 1012.4
20260502064507 47 168 0.0 0.0 0.00 0.00 0.00 76 1012.5
20260502063005 47 227 0.0 0.9 0.00 0.00 0.00 75 1012.3
20260502061501 48 254 0.0 0.9 0.00 0.00 0.00 73 1012.5
20260502060002 48 207 0.0 1.7 0.00 0.00 0.00 72 1012.8
20260502054504 49 154 0.0 0.9 0.00 0.00 0.00 71 1012.7
20260502053017 49 123 0.0 1.7 0.00 0.00 0.00 70 1012.9
20260502051508 50 128 0.0 3.5 0.00 0.00 0.00 69 1013.1
20260502050009 50 218 0.0 3.5 0.00 0.00 0.00 68 1013.2
20260502044508 50 197 0.9 5.2 0.00 0.00 0.00 68 1013.2
20260502043003 50 281 1.7 3.5 0.00 0.00 0.00 68 1013.2
20260502040004 50 209 0.9 3.5 0.00 0.00 0.00 69 1013.1
20260502034517 50 136 1.7 5.2 0.00 0.00 0.00 69 1013.2
20260502031512 50 222 0.9 4.3 0.00 0.00 0.00 69 1013.3
20260502030010 50 184 0.0 2.6 0.00 0.00 0.00 69 1013.3
20260502024514 50 302 0.0 0.9 0.00 0.00 0.00 69 1013.3
20260502023008 50 125 0.0 1.7 0.00 0.00 0.00 69 1013.2
20260502021501 50 240 0.0 2.6 0.00 0.00 0.00 69 1013.1
20260502014517 51 256 2.6 4.3 0.00 0.00 0.00 67 1013.1
20260502013016 51 247 1.7 5.2 0.00 0.00 0.00 66 1013.1
20260502010020 52 209 2.6 5.2 0.00 0.00 0.00 64 1012.8
20260502004513 52 84 0.0 7.8 0.00 0.00 0.00 62 1012.7
20260502001523 54 232 0.9 9.6 0.00 0.00 0.00 59 1012.1
20260502000022 55 226 5.2 8.7 0.00 0.00 0.00 55 1011.7
20260501233003 58 248 1.7 4.3 0.00 0.00 0.00 41 1011.1
20260501231502 59 230 1.7 8.7 0.00 0.00 0.00 38 1010.8
20260501230002 60 211 1.7 7.8 0.00 0.00 0.00 37 1010.6
20260501224509 60 234 1.7 8.7 0.00 0.00 0.00 37 1010.6
20260501223006 60 261 5.2 9.6 0.00 0.00 0.00 36 1010.4
20260501221510 61 214 2.6 9.6 0.00 0.00 0.00 37 1010.5
20260501220011 61 249 0.9 8.7 0.00 0.00 0.00 37 1010.5
20260501214503 61 203 6.1 11.3 0.00 0.00 0.00 36 1010.5
20260501213003 61 193 2.6 11.3 0.00 0.00 0.00 37 1010.4
20260501211504 61 201 2.6 10.4 0.00 0.00 0.00 38 1010.2
20260501210011 60 211 5.2 13.9 0.00 0.00 0.00 38 1010.3
20260501204509 60 196 3.5 13.0 0.00 0.00 0.00 41 1010.1
20260501203005 60 227 8.7 14.8 0.00 0.00 0.00 40 1010.1
20260501200005 61 103 3.5 12.2 0.00 0.00 0.00 42 1010.0
20260501194510 61 213 7.0 13.9 0.00 0.00 0.00 42 1010.1